Fremont, MI

1:41 PM EDT on September 16, 2019 (GMT -0400)
Fremont

Weather History for KFFX - June, 2019

Change the Weather History Date:

Tuesday, June 4, 2019

  Actual Average (WUND) Record (WUND)
Temperature  
Mean Temperature 58 °F -  
Max Temperature 72 °F - - (-1)
Min Temperature 43 °F - - (-1)
Degree Days  
Heating Degree Days 8    
Growing Degree Days 8 (Base 50)    
Moisture  
Dew Point 46 °F    
Average Humidity 63    
Maximum Humidity 96    
Minimum Humidity 39    
Precipitation  
Precipitation 0.00 in - - ()
Sea Level Pressure  
Sea Level Pressure 29.95 in    
Wind  
Wind Speed 4 mph ()    
Max Wind Speed 21 mph    
Max Gust Speed 25 mph    
Visibility 10.0 miles    
Events      
Averages and records for this station are not official NWS values.
T = Trace of Precipitation, MM = Missing Value Source: Averaged Metar Reports

Daily Weather History Graph

Daily Weather History Graph

Search for Another Location

Airport or City:

Astronomy

Jun. 04, 2019 Rise Set
Actual Time 6:04 AM EDT 9:20 PM EDT
Civil Twilight 5:29 AM EDT 9:55 PM EDT
Nautical Twilight 4:44 AM EDT 10:40 PM EDT
Astronomical Twilight 3:49 AM EDT 11:36 PM EDT
Moon 7:13 AM EDT (6/4) 10:47 PM EDT (6/4)
Length of Visible Light 16h 25m
Length of Day
15h 15m
New Moon, 2% of the Moon is Illuminated
Jun 4
New Moon
Jun 10
First Quarter
Jun 17
Full
Jun 25
Last Quarter
Jul 2
New

Hourly Weather History & Observations

Time (EDT) Temp. Windchill Dew Point Humidity Pressure Visibility Wind Dir Wind Speed Gust Speed Precip Events Conditions
12:15 AM 45.9 °F - 39.4 °F 78% 30.10 in 10.0 mi Calm Calm - N/A   Clear
12:35 AM 45.9 °F - 39.2 °F 78% 30.09 in 10.0 mi Calm Calm - N/A   Clear
12:36 AM 45.9 °F - 39.2 °F 78% 30.09 in 10.0 mi Calm Calm - N/A   Clear
12:55 AM 45.7 °F - 42.3 °F 88% 30.09 in 10.0 mi Calm Calm - N/A   Clear
12:57 AM 45.3 °F - 42.3 °F 89% 30.09 in 10.0 mi Calm Calm - N/A   Clear
1:15 AM 45.9 °F 44.6 °F 43.9 °F 93% 30.08 in 10.0 mi East 3.5 mph - N/A   Clear
1:16 AM 45.9 °F 44.6 °F 44.1 °F 93% 30.08 in 10.0 mi East 3.5 mph - N/A   Clear
1:35 AM 45.0 °F - 43.7 °F 95% 30.07 in 10.0 mi Calm Calm - N/A   Clear
1:36 AM 45.1 °F - 43.7 °F 95% 30.07 in 10.0 mi Calm Calm - N/A   Clear
1:55 AM 44.8 °F - 42.4 °F 91% 30.06 in 10.0 mi Calm Calm - N/A   Clear
1:57 AM 44.6 °F - 42.8 °F 93% 30.06 in 10.0 mi Calm Calm - N/A   Clear
2:15 AM 45.5 °F - 42.3 °F 88% 30.06 in 10.0 mi Calm Calm - N/A   Clear
2:16 AM 45.3 °F - 42.1 °F 88% 30.06 in 10.0 mi Calm Calm - N/A   Clear
2:35 AM 45.5 °F - 41.5 °F 86% 30.05 in 10.0 mi Calm Calm - N/A   Clear
2:56 AM 45.5 °F - 40.8 °F 84% 30.05 in 10.0 mi Calm Calm - N/A   Clear
3:15 AM 45.5 °F - 39.9 °F 81% 30.05 in 10.0 mi Calm Calm - N/A   Clear
3:35 AM 43.9 °F - 41.4 °F 91% 30.05 in 10.0 mi Calm Calm - N/A   Clear
3:36 AM 43.9 °F - 41.5 °F 91% 30.05 in 10.0 mi Calm Calm - N/A   Clear
3:55 AM 43.0 °F - 41.7 °F 95% 30.05 in 10.0 mi Calm Calm - N/A   Scattered Clouds
3:57 AM 43.0 °F - 41.9 °F 96% 30.04 in 10.0 mi Calm Calm - N/A   Scattered Clouds
4:15 AM 45.7 °F - 43.7 °F 93% 30.04 in 10.0 mi Calm Calm - N/A   Mostly Cloudy
4:16 AM 45.7 °F - 43.7 °F 93% 30.04 in 10.0 mi Calm Calm - N/A   Mostly Cloudy
4:35 AM 47.1 °F - 41.5 °F 81% 30.04 in 10.0 mi Calm Calm - N/A   Overcast
4:36 AM 47.1 °F - 41.4 °F 80% 30.04 in 10.0 mi Calm Calm - N/A   Overcast
4:56 AM 47.5 °F - 42.6 °F 83% 30.03 in 10.0 mi Calm Calm - N/A   Overcast
5:15 AM 48.6 °F - 38.3 °F 68% 30.03 in 10.0 mi Calm Calm - N/A   Overcast
5:16 AM 48.7 °F - 38.5 °F 68% 30.03 in 10.0 mi Calm Calm - N/A   Overcast
5:35 AM 49.1 °F - 38.1 °F 66% 30.03 in 10.0 mi South 3.5 mph - N/A   Overcast
5:37 AM 49.1 °F - 38.7 °F 67% 30.03 in 10.0 mi South 3.5 mph - N/A   Overcast
5:55 AM 49.5 °F - 36.7 °F 61% 30.02 in 10.0 mi South 3.5 mph - N/A   Overcast
6:15 AM 50.2 °F - 36.0 °F 58% 30.02 in 10.0 mi South 3.5 mph - N/A   Overcast
6:16 AM 50.2 °F - 36.0 °F 58% 30.02 in 10.0 mi South 3.5 mph - N/A   Overcast
6:36 AM 50.5 °F - 35.8 °F 57% 30.02 in 10.0 mi South 4.6 mph - N/A   Overcast
6:55 AM 50.9 °F - 35.8 °F 56% 30.01 in 10.0 mi South 5.8 mph - N/A   Scattered Clouds
6:56 AM 50.9 °F - 35.8 °F 56% 30.01 in 10.0 mi South 5.8 mph - N/A   Scattered Clouds
7:15 AM 51.1 °F - 36.0 °F 56% 30.01 in 10.0 mi South 3.5 mph - N/A   Clear
7:35 AM 52.2 °F - 36.7 °F 56% 30.00 in 10.0 mi South 3.5 mph - N/A   Clear
7:55 AM 53.6 °F - 37.4 °F 54% 30.00 in 10.0 mi South 4.6 mph - N/A   Clear
7:57 AM 53.8 °F - 37.4 °F 54% 30.00 in 10.0 mi South 3.5 mph - N/A   Clear
8:16 AM 55.4 °F - 39.0 °F 54% 30.00 in 10.0 mi South 4.6 mph - N/A   Clear
8:35 AM 57.0 °F - 40.3 °F 54% 29.99 in 10.0 mi South 6.9 mph - N/A   Clear
8:55 AM 58.8 °F - 43.3 °F 56% 29.99 in 10.0 mi SSW 6.9 mph - N/A   Clear
9:15 AM 61.9 °F - 45.0 °F 54% 29.99 in 10.0 mi SSW 9.2 mph - N/A   Clear
9:16 AM 62.1 °F - 45.1 °F 54% 29.99 in 10.0 mi SSW 9.2 mph - N/A   Clear
9:35 AM 64.6 °F - 46.0 °F 51% 29.99 in 10.0 mi SW 10.4 mph - N/A   Clear
9:36 AM 64.6 °F - 46.0 °F 51% 29.99 in 10.0 mi SW 10.4 mph - N/A   Clear
9:55 AM 66.4 °F - 47.3 °F 50% 29.99 in 10.0 mi SW 11.5 mph 17.3 mph N/A   Clear
10:16 AM 68.4 °F - 48.7 °F 49% 29.98 in 10.0 mi WSW 10.4 mph - N/A   Clear
10:35 AM 70.0 °F - 50.0 °F 49% 29.98 in 10.0 mi WSW 9.2 mph - N/A   Clear
10:36 AM 70.2 °F - 50.0 °F 49% 29.98 in 10.0 mi WSW 9.2 mph - N/A   Clear
10:55 AM 71.8 °F - 50.4 °F 47% 29.98 in 10.0 mi WSW 12.7 mph 18.4 mph N/A   Scattered Clouds
10:56 AM 71.8 °F - 50.2 °F 46% 29.98 in 10.0 mi West 11.5 mph 18.4 mph N/A   Scattered Clouds
11:15 AM 70.9 °F - 49.3 °F 46% 29.98 in 10.0 mi WSW 12.7 mph 18.4 mph N/A   Mostly Cloudy
11:16 AM 70.9 °F - 49.1 °F 46% 29.98 in 10.0 mi WSW 12.7 mph 18.4 mph N/A   Mostly Cloudy
11:35 AM 70.7 °F - 46.9 °F 43% 29.98 in 10.0 mi West 16.1 mph 24.2 mph N/A   Overcast
11:36 AM 70.5 °F - 46.8 °F 43% 29.98 in 10.0 mi WSW 17.3 mph 24.2 mph N/A   Overcast
11:55 AM 70.3 °F - 48.0 °F 45% 29.98 in 10.0 mi WSW 9.2 mph 19.6 mph N/A   Overcast
11:56 AM 70.3 °F - 48.2 °F 45% 29.98 in 10.0 mi WSW 9.2 mph 19.6 mph N/A   Overcast
12:15 PM 72.0 °F - 47.7 °F 42% 29.97 in 10.0 mi West 19.6 mph 25.3 mph N/A   Mostly Cloudy
12:36 PM 68.7 °F - 48.6 °F 49% 29.97 in 10.0 mi SW 16.1 mph 25.3 mph N/A   Overcast
12:55 PM 68.0 °F - 49.5 °F 51% 29.96 in 10.0 mi SW 16.1 mph 21.9 mph N/A   Overcast
1:15 PM 66.2 °F - 50.0 °F 56% 29.96 in 10.0 mi WSW 10.4 mph 21.9 mph N/A   Overcast
1:16 PM 66.2 °F - 50.2 °F 56% 29.96 in 10.0 mi WSW 10.4 mph 21.9 mph N/A   Overcast
1:35 PM 64.9 °F - 50.4 °F 59% 29.96 in 10.0 mi WSW 12.7 mph 18.4 mph N/A   Overcast
1:55 PM 65.3 °F - 50.5 °F 59% 29.95 in 10.0 mi SW 12.7 mph 21.9 mph N/A   Overcast
1:56 PM 65.3 °F - 50.4 °F 58% 29.95 in 10.0 mi WSW 10.4 mph 21.9 mph N/A   Overcast
2:15 PM 64.6 °F - 49.8 °F 59% 29.95 in 10.0 mi WSW 16.1 mph 25.3 mph N/A   Overcast
2:16 PM 64.6 °F - 49.6 °F 58% 29.95 in 10.0 mi WSW 20.7 mph 25.3 mph N/A   Overcast
2:35 PM 63.5 °F - 50.9 °F 63% 29.94 in 10.0 mi WSW 6.9 mph 21.9 mph N/A   Overcast
2:36 PM 63.5 °F - 50.9 °F 63% 29.94 in 10.0 mi SW 9.2 mph 16.1 mph N/A   Overcast
2:56 PM 63.5 °F - 50.2 °F 62% 29.93 in 10.0 mi SW 18.4 mph - N/A   Overcast
3:15 PM 62.8 °F - 50.2 °F 63% 29.92 in 10.0 mi SW 12.7 mph 17.3 mph N/A   Overcast
3:16 PM 63.0 °F - 50.0 °F 63% 29.92 in 10.0 mi SW 12.7 mph 17.3 mph N/A   Overcast
3:35 PM 63.5 °F - 49.8 °F 61% 29.91 in 10.0 mi WSW 12.7 mph 19.6 mph N/A   Overcast
3:36 PM 63.7 °F - 49.8 °F 61% 29.91 in 10.0 mi WSW 11.5 mph 19.6 mph N/A   Overcast
3:55 PM 68.0 °F - 49.5 °F 51% 29.89 in 10.0 mi SW 12.7 mph 17.3 mph N/A   Overcast
4:15 PM 67.8 °F - 48.7 °F 50% 29.89 in 10.0 mi SW 15.0 mph 20.7 mph N/A   Overcast
4:35 PM 67.6 °F - 49.5 °F 52% 29.89 in 10.0 mi SW 10.4 mph - N/A   Overcast
4:36 PM 67.8 °F - 49.6 °F 52% 29.88 in 10.0 mi SW 11.5 mph 16.1 mph N/A   Overcast
4:55 PM 68.9 °F - 48.9 °F 49% 29.88 in 10.0 mi SW 10.4 mph 16.1 mph N/A   Mostly Cloudy
5:15 PM 70.3 °F - 47.3 °F 44% 29.86 in 10.0 mi SW 17.3 mph 23.0 mph N/A   Mostly Cloudy
5:16 PM 70.3 °F - 47.1 °F 43% 29.86 in 10.0 mi SSW 16.1 mph 23.0 mph N/A   Scattered Clouds
5:35 PM 72.1 °F - 46.8 °F 40% 29.85 in 10.0 mi SSW 16.1 mph - N/A   Clear
5:55 PM 72.5 °F - 45.9 °F 39% 29.84 in 10.0 mi SSW 13.8 mph 21.9 mph N/A   Clear
6:15 PM 72.9 °F - 46.6 °F 39% 29.83 in 10.0 mi SSW 11.5 mph - N/A   Scattered Clouds
6:35 PM 72.5 °F - 46.9 °F 40% 29.83 in 10.0 mi SW 9.2 mph - N/A   Mostly Cloudy
6:36 PM 72.3 °F - 46.9 °F 40% 29.83 in 10.0 mi SW 9.2 mph - N/A   Mostly Cloudy
6:56 PM 71.1 °F - 47.1 °F 42% 29.82 in 10.0 mi SW 5.8 mph - N/A   Overcast
7:15 PM 71.1 °F - 48.2 °F 44% 29.81 in 10.0 mi SW 6.9 mph - N/A   Overcast
7:16 PM 71.1 °F - 48.2 °F 44% 29.81 in 10.0 mi SW 6.9 mph - N/A   Overcast
7:35 PM 70.7 °F - 49.1 °F 46% 29.80 in 10.0 mi SW 3.5 mph - N/A   Overcast
7:36 PM 70.7 °F - 49.3 °F 47% 29.80 in 10.0 mi SW 3.5 mph - N/A   Overcast
7:55 PM 69.8 °F - 51.8 °F 53% 29.80 in 10.0 mi SW 3.5 mph - N/A   Overcast
8:16 PM 68.9 °F - 54.7 °F 60% 29.79 in 10.0 mi Calm Calm - N/A   Overcast
8:35 PM 68.7 °F - 53.6 °F 58% 29.79 in 10.0 mi Calm Calm - N/A   Overcast
8:36 PM 68.7 °F - 53.6 °F 58% 29.78 in 10.0 mi Calm Calm - N/A   Overcast
8:55 PM 68.0 °F - 55.2 °F 64% 29.78 in 10.0 mi ESE 3.5 mph - N/A   Overcast
9:15 PM 67.1 °F - 54.7 °F 64% 29.79 in 10.0 mi SE 3.5 mph - N/A   Overcast
9:16 PM 67.1 °F - 54.5 °F 64% 29.79 in 10.0 mi SE 3.5 mph - N/A   Overcast
9:55 PM 66.2 °F - 54.7 °F 66% 29.79 in 10.0 mi ESE 3.5 mph - N/A   Overcast
9:56 PM 66.2 °F - 54.7 °F 66% 29.79 in 10.0 mi ESE 4.6 mph - N/A   Overcast
10:15 PM 66.6 °F - 52.7 °F 61% 29.78 in 10.0 mi SE 6.9 mph - N/A   Overcast
10:36 PM 66.6 °F - 53.6 °F 63% 29.78 in 10.0 mi SE 5.8 mph - N/A   Overcast
10:55 PM 66.4 °F - 54.3 °F 65% 29.79 in 10.0 mi NE 3.5 mph - N/A   Overcast
10:56 PM 66.4 °F - 54.3 °F 65% 29.79 in 10.0 mi North 3.5 mph - N/A   Overcast
11:16 PM 63.9 °F - 56.8 °F 78% 29.79 in 10.0 mi NE 5.8 mph - N/A   Overcast
11:35 PM 63.5 °F - 58.6 °F 84% 29.78 in 10.0 mi East 4.6 mph - N/A   Light Drizzle
11:56 PM 63.5 °F - 58.1 °F 83% 29.77 in 10.0 mi East 5.8 mph - N/A   Overcast